ALTAIR (RS65S)

Last updated on Wed Feb 05 2025 00:03:01 GMT+0000 (Coordinated Universal Time)

1 61779U 24199AW 25035.61167256 .00014097 00000+0 55458-3 0 9994 2 61779 97.3749 265.0315 0015044 282.3839 77.5715 15.25653128 60963
UTC large
Height (km)
Speed (km/s)
/
Latitude / Longitude
Inclination (degrees)
Orbital Period (minutes)
Azimuth
Elevation
Range (km)
Doppler Factor

Next 0 passes for location: London (51.5072 / 0.1276)

Sorry there are no passes over London.